Flag for Luxembourg Weather past 2 weeks in Differdange, Luxembourg

Now
39 °F

Partly sunny.


Feels Like: 32 °F
Forecast: 27 / 43 °F
Wind: 12 mph from Northwest

Location: Luxembourg Airport

Current Time: Feb 27, 2015 at 12:57:36 PM

Latest Report: Feb 27, 2015 at 12:20 PM


Visibility: N/A

Pressure: 29.95 "Hg

Humidity: 75%

Dew point: 32 °F

Location of DifferdangeLocation

Historic Weather in Differdange — Graph

°F

Differdange temperature yesterday

Maximum temperature yesterday: 43 °F (at 12:50 PM)
Minimum temperature yesterday: 37 °F (at 12:20 AM)
Average temperature yesterday: 40 °F

Past Weeks' High & Low Weather Summary

 TemperatureHumidityPressure
High48 °F (Feb 20, 2:50 PM)100% (Feb 12, 11:20 AM)30.69 "Hg (Feb 12, 11:20 AM)
Low27 °F (Feb 13, 7:50 AM)62% (Feb 20, 2:50 PM)29.42 "Hg (Feb 21, 5:50 AM)
Average36 °F93%29.97 "Hg
* Reported Feb 12 11:20 AM — Feb 27 11:50 AM, Differdange, Weather by CustomWeather, © 2015

Note: Actual official high and low records may vary slightly from our data, if they occured in-between our weather recording intervals... More about our weather records

Advertising

Differdange weather history for previous 24 hours

 ConditionsComfort  
Time TempWeatherWind HumidityBarometerVisibility
11:50 AM
Fri, Feb 27
39 °FPartly sunny.10 mph81%29.92 "HgN/A
11:20 AM39 °FPartly sunny.13 mph81%29.92 "HgN/A
10:50 AM39 °FPartly sunny.12 mph81%29.89 "HgN/A
10:20 AM39 °FPartly sunny.14 mph81%29.89 "HgN/A
9:50 AM37 °FBroken clouds.14 mph100%29.86 "HgN/A
9:20 AM37 °FBroken clouds.14 mph93%29.86 "HgN/A
8:50 AM37 °FBroken clouds.12 mph93%29.86 "HgN/A
8:20 AM37 °FBroken clouds.13 mph93%29.83 "HgN/A
7:50 AM37 °FPartly sunny.13 mph93%29.80 "HgN/A
7:20 AM37 °FPassing clouds.12 mph93%29.80 "HgN/A
6:50 AM37 °FLight rain. Passing clouds.12 mph93%29.77 "HgN/A
6:20 AM37 °FLight rain. Passing clouds.10 mph93%29.77 "HgN/A
5:50 AM39 °FLight rain. Passing clouds.10 mph93%29.77 "HgN/A
5:20 AM39 °FLight rain. Passing clouds.12 mph93%29.74 "HgN/A
4:50 AM39 °FLight rain. Passing clouds.6 mph93%29.74 "Hg4 mi
4:20 AM39 °FLight rain. Fog.1 mph93%29.74 "Hg1 mi
3:50 AM39 °FLight rain. Fog.No wind93%29.74 "Hg1 mi
3:20 AM39 °FChilly.3 mph93%29.74 "HgN/A
2:50 AM39 °FChilly.7 mph93%29.74 "HgN/A
2:20 AM39 °FChilly.7 mph93%29.77 "HgN/A
1:50 AM39 °FChilly.6 mph93%29.77 "HgN/A
1:20 AM39 °FChilly.6 mph93%29.77 "HgN/A
12:50 AM39 °FLight rain. Fog.7 mph93%29.77 "Hg1 mi
12:20 AM39 °FLight rain. Fog.7 mph93%29.80 "Hg1 mi
11:50 PM
Thu, Feb 26
39 °FDrizzle. Fog.9 mph93%29.80 "Hg1 mi
11:20 PM39 °FDrizzle. Fog.9 mph100%29.80 "Hg0 mi
10:50 PM39 °FDrizzle. Fog.10 mph100%29.83 "Hg0 mi
9:50 PM39 °FFog.9 mph100%29.86 "Hg1 mi
9:20 PM41 °FFog.9 mph93%29.86 "Hg1 mi
8:50 PM41 °FPassing clouds.8 mph93%29.89 "Hg3 mi
8:20 PM41 °FPassing clouds.10 mph93%29.89 "Hg4 mi
7:50 PM41 °FDrizzle. Fog.8 mph93%29.89 "Hg2 mi
7:20 PM41 °FLight rain. Fog.7 mph93%29.92 "Hg2 mi
6:50 PM41 °FSprinkles. Fog.5 mph93%29.92 "Hg1 mi
6:20 PM41 °FLight rain. Passing clouds.5 mph93%29.92 "Hg4 mi
5:50 PM41 °FLight rain. Partly sunny.7 mph93%29.95 "Hg5 mi
5:20 PM41 °FLight rain. Partly sunny.7 mph93%29.95 "Hg4 mi
4:50 PM43 °FLight rain. Partly sunny.7 mph87%29.95 "Hg4 mi
4:20 PM43 °FPartly sunny.7 mph87%29.98 "HgN/A
3:50 PM43 °FPartly sunny.8 mph87%29.98 "HgN/A
3:20 PM43 °FPartly sunny.9 mph87%29.98 "HgN/A
2:50 PM43 °FBroken clouds.9 mph87%29.98 "HgN/A
2:20 PM43 °FBroken clouds.8 mph87%30.01 "HgN/A
1:50 PM43 °FBroken clouds.8 mph87%30.01 "HgN/A
1:20 PM43 °FBroken clouds.8 mph93%30.04 "HgN/A
12:50 PM43 °FBroken clouds.8 mph87%30.04 "HgN/A
12:20 PM41 °FPartly sunny.9 mph100%30.07 "HgN/A
Weather by CustomWeather, © 2015

See weather overviewHow to use our weather pages